Cusco, Peru

9:11 AM PET on December 05, 2016 (GMT -0500)
Cusco

Weather History for 84686 - August, 2013

Change the Weather History Date:

Tuesday, August 13, 2013

  Actual Average Record
Temperature  
Mean Temperature 54 °F -  
Max Temperature 73 °F - - ()
Min Temperature 35 °F - - ()
Degree Days  
Heating Degree Days 11    
Growing Degree Days 4 (Base 50)    
Moisture  
Dew Point 29 °F    
Average Humidity 43    
Maximum Humidity 75    
Minimum Humidity 10    
Precipitation  
Precipitation 0.00 in - - ()
Sea Level Pressure  
Sea Level Pressure 30.42 in    
Wind  
Wind Speed 2 mph ()    
Max Wind Speed 10 mph    
Max Gust Speed -    
Visibility 6.2 miles    
Events      
T = Trace of Precipitation, MM = Missing Value Source: Averaged Metar Reports

Daily Weather History Graph

Daily Weather History Graph

Search for Another Location

Airport or City:

Trip Planner

Search our weather history database for the weather conditions in past years. The results will help you decide how hot, cold, wet, or windy it might be!

Date:

Astronomy

Aug. 13, 2013 Rise Set
Actual Time 6:03 AM PET 5:41 PM PET
Civil Twilight 5:41 AM PET 6:03 PM PET
Nautical Twilight 5:16 AM PET 6:29 PM PET
Astronomical Twilight 4:50 AM PET 6:54 PM PET
Moon 10:38 AM PET (8/13) 11:36 PM PET (8/13)
Length of Visible Light 12h 22m
Length of Day
11h 38m
Waxing Crescent, 42% of the Moon is Illuminated
Aug 13
Waxing Crescent
Aug 14
First Quarter
Aug 20
Full
Aug 28
Last Quarter
Sep 5
New

Hourly Weather History & Observations

Time (PET) Temp. Windchill Dew Point Humidity Pressure Visibility Wind Dir Wind Speed Gust Speed Precip Events Conditions
12:00 AM 42.8 °F - 30.2 °F 61% 30.45 in 6.2 mi WNW 1.2 mph - N/A   Unknown
1:00 AM 41.0 °F - 30.2 °F 65% 30.45 in 6.2 mi Calm Calm - N/A   Unknown
2:00 AM 39.2 °F - 30.2 °F 70% 30.42 in 6.2 mi Calm Calm - N/A   Unknown
3:00 AM 39.2 °F - 28.4 °F 65% 30.42 in 6.2 mi Calm Calm - N/A   Unknown
4:00 AM 38 °F - 29 °F 61%  in 6 mi Calm Calm - -   Partly Cloudy
4:00 AM 37.4 °F - 30.2 °F 75% 30.42 in 6.2 mi Calm Calm - N/A   Unknown
5:00 AM 39.2 °F - 30.2 °F 70% 30.45 in 6.2 mi South 1.2 mph - N/A   Unknown
5:30 AM 37.4 °F - 30.2 °F 75% 30.45 in 6.2 mi Calm Calm - N/A   Unknown
6:00 AM 37.4 °F - 28.4 °F 70% 30.45 in 6.2 mi South 1.2 mph - N/A   Unknown
6:30 AM 35.6 °F - 28.4 °F 75% 30.48 in 6.2 mi Variable 1.2 mph - N/A   Unknown
7:00 AM 40 °F - 30 °F 57%  in 6 mi Calm Calm - -   Partly Cloudy
7:00 AM 41.0 °F - 30.2 °F 65% 30.48 in 6.2 mi Calm Calm - N/A   Unknown
7:30 AM 46.4 °F - 30.2 °F 53% 30.51 in 6.2 mi Variable 1.2 mph - N/A   Unknown
8:00 AM 48.2 °F - 32.0 °F 54% 30.51 in 6.2 mi Variable 2.3 mph - N/A   Unknown
8:30 AM 50.0 °F - 32.0 °F 50% 30.51 in 6.2 mi ESE 3.5 mph - N/A   Unknown
9:00 AM 51.8 °F - 32.0 °F 47% 30.51 in 6.2 mi Variable 2.3 mph - N/A   Unknown
9:30 AM 55.4 °F - 32.0 °F 41% 30.51 in 6.2 mi Variable 3.5 mph - N/A   Unknown
10:00 AM 40 °F - 32 °F 63%  in 6 mi East 3.5 mph - -   Partly Cloudy
10:00 AM 57.2 °F - 33.8 °F 41% 30.48 in 6.2 mi Variable 2.3 mph - N/A   Unknown
10:30 AM 62.6 °F - 30.2 °F 30% 30.45 in 6.2 mi Variable 2.3 mph - N/A   Partly Cloudy
11:00 AM 64.4 °F - 26.6 °F 24% 30.45 in 6.2 mi West 3.5 mph - N/A   Partly Cloudy
11:30 AM 68.0 °F - 17.6 °F 15% 30.42 in 6.2 mi Variable 2.3 mph - N/A   Partly Cloudy
12:00 PM 68.0 °F - 23.0 °F 18% 30.39 in 6.2 mi WSW 5.8 mph - N/A   Scattered Clouds
12:30 PM 69.8 °F - 23.0 °F 17% 30.39 in 6.2 mi Variable 5.8 mph - N/A   Scattered Clouds
1:00 PM 69.8 °F - 21.2 °F 16% 30.36 in 6.2 mi Variable 4.6 mph - N/A   Scattered Clouds
1:30 PM 71.6 °F - 21.2 °F 15% 30.33 in 6.2 mi Variable 3.5 mph - N/A   Scattered Clouds
2:00 PM 71.6 °F - 19.4 °F 14% 30.33 in 6.2 mi Variable 4.6 mph - N/A   Scattered Clouds
2:30 PM 69.8 °F - 19.4 °F 15% 30.30 in 6.2 mi NW 10.4 mph - N/A   Scattered Clouds
3:00 PM 68.0 °F - 23.0 °F 18% 30.30 in 6.2 mi NW 10.4 mph - N/A   Scattered Clouds
3:30 PM 66.2 °F - 23.0 °F 19% 30.30 in 6.2 mi NNE 9.2 mph - N/A   Scattered Clouds
4:00 PM 66 °F - 23 °F 10%  in 9 mi NE 9.2 mph - -   Partly Cloudy
4:00 PM 66.2 °F - 23.0 °F 19% 30.30 in 6.2 mi NE 9.2 mph - N/A   Scattered Clouds
4:30 PM 64.4 °F - 23.0 °F 21% 30.33 in 6.2 mi NNE 8.1 mph - N/A   Scattered Clouds
5:00 PM 62.6 °F - 28.4 °F 27% 30.33 in 6.2 mi NNE 8.1 mph - N/A   Scattered Clouds
5:30 PM 60.8 °F - 32.0 °F 34% 30.36 in 6.2 mi NNE 9.2 mph - N/A   Scattered Clouds
6:00 PM 60.8 °F - 33.8 °F 36% 30.36 in 6.2 mi NNW 6.9 mph - N/A   Scattered Clouds
7:00 PM 56 °F - 34 °F 31%  in 6 mi North 4.6 mph - -   Partly Cloudy
7:00 PM 57.2 °F - 33.8 °F 41% 30.42 in 6.2 mi North 4.6 mph - N/A   Partly Cloudy
8:00 PM 53.6 °F - 35.6 °F 51% 30.45 in 6.2 mi ESE 3.5 mph - N/A   Partly Cloudy
9:00 PM 51.8 °F - 35.6 °F 54% 30.45 in 6.2 mi Variable 2.3 mph - N/A   Unknown
10:00 PM 47 °F - 35 °F 52%  in 6 mi Calm Calm - -   Partly Cloudy
10:00 PM 46.4 °F - 35.6 °F 66% 30.48 in 6.2 mi Calm Calm - N/A   Unknown
11:00 PM 44.6 °F 42.2 °F 33.8 °F 66% 30.48 in 6.2 mi West 4.6 mph - N/A   Unknown